Погода в Лейк-Луизе

Канада     51°25′31″N   116°10′47″W
темп.,
°C
ветер,
м/с
пор.,
м/с
влажн.,
%
обл.,
%
осадки,
мм/ч
давл.,
гПа
погр.,
м
19 сентября, вс
вс1900:00−2з1197100 0.1 1006127
03:00−1юз238799 0.1 1006107
06:00−1юз2283100 0.1 100876
09:00−1юз2283100 0.0 1009222
12:00+1юз2384100 0.1 1010854
15:00+2зюз227699 0.1 1010944
18:00+2зюз2273100 0.1 1011280
21:00−1зюз119078 0.1 101514
20 сентября, пн
пн2000:00−3юз229655 0.1 101927
03:00−4юз119795 0.0 102125
06:00−4юз1196100 0.1 102334
09:00−1зюз118859 0.0 1022134
12:00+2зюз227390 0.1 1021986
15:00+4зюз236499 0.2 10211212
18:00+3зюз237089 0.3 10211057
21:00−3зюз229216 0.1 102718
21 сентября, вт
вт2100:00−4з22968 0.1 102821
03:00−4зюз229574 0.0 102917
06:00−4юз119573 0.0 102912
09:000юз22845 0.0 1026127
12:00+5зюз347316 0.0 1021585
15:00+8юз34648 0.0 1019829
18:00+8юз23676 0.0 1018738
21:000юз21917 0.0 102011
22 сентября, ср
ср2200:00−1ююз2294100 0.0 101914
03:00−1юз2297100 0.0 101819
06:00−1юз2398100 0.0 101554
09:00+1юз239463 0.0 1014146
12:00+6зюз347542 0.0 1011740
15:00+6з347991 0.3 1013786
18:00+5з337971 0.4 1015611
21:00+3з3377100 0.0 101865
23 сентября, чт
чт2300:00+3зюз227292 0.0 102034
03:00−1зюз228861 0.0 102311
06:00−1зюз2194100 0.0 102514
09:00+1зюз22907 0.0 1025115
12:00+6зюз33595 0.0 1022951
15:00+8зюз34436 0.0 10211263
18:00+8зюз234854 0.0 10211103
21:00+2з22705 0.0 102410